Theta_e
320 321 320 321 321 321 320 321 321 320 318 319 319 320 320 319 319 319 318 320 318 318 321 321 317 316 316 319 320 317 318 322 321 321 320 318 317 318 321 325 328 328 329 330 331 331 332 331 331 332 330 330 329 329 328 327 325 325 324 324 323 323 323 321 321 321 321 321 320 320 320 321 321 321 321 322 321 321 321 321 321 321 321 321 320
321 322 321 321 321 322 322 321 321 321 319 321 319 319 322 323 321 320 318 317 318 318 316 317 317 316 318 322 320 317 318 321 321 322 321 319 316 316 319 322 325 326 326 327 328 328 329 328 329 331 329 327 327 327 326 324 324 323 322 323 323 323 321 321 321 321 320 320 319 319 320 320 320 320 320 320 319 320 320 320 320 320 320 320 320
323 322 322 322 322 323 322 323 320 322 321 323 324 322 320 320 320 318 318 319 318 317 314 317 315 316 317 318 318 319 321 322 322 321 321 320 316 315 317 319 321 324 325 326 326 326 326 327 327 329 328 327 327 324 323 323 323 323 322 322 323 322 320 320 320 320 320 320 319 319 320 319 319 319 319 319 319 319 319 318 319 319 319 318 319
324 324 324 323 322 323 322 322 321 322 322 320 320 320 320 319 318 318 317 317 316 315 314 316 315 317 317 318 316 319 320 320 321 318 319 320 317 315 315 316 317 320 322 324 325 325 325 326 327 326 326 323 323 323 323 323 323 323 322 321 322 321 321 320 319 319 319 319 319 319 319 319 318 318 318 318 318 318 317 318 318 318 317 317 317
324 325 323 324 323 323 321 322 323 323 321 321 320 318 319 319 318 317 318 318 317 317 317 316 316 317 317 319 319 321 320 320 318 318 317 317 316 315 314 313 313 315 317 320 324 324 325 326 325 323 321 322 323 323 323 323 323 323 323 322 321 321 321 319 318 319 319 319 318 318 318 318 317 317 318 318 318 317 318 317 317 317 317 317 317
325 324 324 324 324 323 322 322 321 321 321 322 319 318 318 317 318 317 320 318 318 318 315 317 315 315 316 315 315 316 317 321 320 319 316 317 316 315 314 312 311 310 311 316 319 323 323 324 322 319 319 320 320 321 321 322 322 323 322 322 321 320 319 318 318 318 318 318 317 317 317 316 316 317 317 317 317 317 316 316 317 316 315 316 317
325 325 324 324 322 323 322 322 321 321 321 321 320 319 317 318 316 315 315 315 316 316 316 316 313 315 316 316 318 318 319 319 318 317 317 316 314 313 313 312 311 309 308 308 312 316 321 321 318 316 317 318 318 318 319 319 320 321 321 320 320 319 319 318 317 318 317 316 316 316 315 315 316 317 317 316 316 315 314 314 316 316 315 316 315
325 324 324 323 322 322 322 322 321 321 321 320 320 318 317 317 317 317 314 313 312 313 313 313 315 317 316 317 317 316 319 316 316 317 316 315 314 311 309 310 310 308 307 307 309 313 316 317 314 313 313 314 315 315 316 317 318 319 320 319 319 318 318 317 316 316 316 315 314 314 314 315 315 316 316 316 315 315 314 315 315 315 315 315 313
326 325 324 324 322 323 322 323 321 320 319 319 319 320 318 318 316 315 316 312 312 313 313 313 315 317 316 317 317 317 318 317 316 316 315 313 310 308 306 305 306 308 306 306 307 309 311 313 313 311 309 309 310 312 313 314 315 317 318 318 318 318 317 316 315 314 314 314 313 314 314 314 315 315 315 314 314 314 314 313 313 314 313 313 314
326 324 325 325 324 323 323 323 322 320 319 319 320 320 318 318 317 315 316 314 312 313 313 314 314 314 314 314 313 315 317 316 316 312 312 310 308 305 305 304 304 304 306 306 306 307 308 311 311 310 307 306 307 308 309 310 312 314 317 317 317 318 316 315 314 313 313 313 313 314 313 313 313 314 313 313 312 312 312 313 313 313 313 314 314
326 324 325 324 324 324 324 323 322 321 320 320 319 319 318 317 318 316 314 316 314 314 315 315 315 314 314 313 312 315 315 314 314 311 310 308 306 305 305 304 304 303 305 305 305 305 305 305 304 304 303 305 304 305 305 306 308 311 313 316 316 316 316 314 313 312 312 312 312 313 312 313 313 312 313 312 312 311 312 312 312 312 313 313 313
327 325 325 324 324 324 324 323 322 321 320 319 319 318 318 316 316 316 316 315 314 315 315 313 311 311 310 311 312 313 313 313 313 311 306 304 302 302 304 303 304 302 303 303 303 301 303 304 304 303 301 302 303 302 302 302 304 309 310 313 315 315 315 313 313 311 311 312 312 312 312 312 312 312 312 311 311 312 311 312 312 312 312 312 311
325 326 325 323 325 324 324 323 322 322 321 321 320 320 319 319 318 317 317 315 314 313 313 314 311 310 307 310 311 314 313 313 312 308 304 302 301 302 301 302 301 302 301 302 301 300 301 302 302 302 299 294 296 301 301 300 300 306 308 309 313 314 314 313 312 311 310 311 311 312 312 311 311 310 311 311 311 311 312 312 311 312 311 311 311
324 326 325 326 325 324 323 323 323 322 322 322 320 317 319 318 319 318 316 317 314 316 316 315 309 307 304 306 309 311 309 311 309 305 303 303 302 301 300 301 301 301 301 301 300 300 300 301 300 300 297 294 292 291 293 293 295 301 304 305 309 312 312 312 311 311 310 311 310 311 311 311 310 310 310 310 311 311 310 310 310 311 310 311 311
325 324 326 326 326 325 324 324 323 323 322 321 320 319 319 319 319 320 313 312 313 314 315 315 307 305 305 307 304 304 307 309 309 305 304 303 300 298 297 299 300 300 300 300 300 300 301 301 301 300 296 293 291 290 292 294 295 297 300 302 305 310 310 311 311 310 309 310 310 310 310 310 310 309 309 310 310 309 309 309 309 309 310 310 310
325 325 326 327 327 326 325 324 324 324 323 322 321 320 319 320 320 319 318 315 312 316 315 313 309 308 304 304 305 303 300 306 305 306 302 298 297 296 297 298 298 298 300 300 300 300 300 301 300 298 295 292 290 290 291 291 294 295 296 300 301 306 308 310 310 309 308 309 310 310 309 309 308 309 309 309 309 309 309 309 308 309 309 310 310
325 325 325 327 327 327 326 325 324 324 324 323 322 322 320 320 320 319 318 317 313 312 314 313 312 312 306 302 301 300 301 303 302 302 299 295 295 295 295 296 298 298 298 298 298 299 300 299 298 295 293 291 289 288 289 289 289 290 291 297 300 303 305 307 308 308 308 309 309 309 308 308 308 308 308 309 308 308 308 308 307 308 308 309 309
326 326 326 326 327 327 326 325 325 324 324 324 323 322 320 320 320 320 318 317 317 312 314 311 313 312 312 306 303 300 301 303 303 297 299 296 294 294 294 295 295 297 297 296 296 297 299 299 296 293 292 290 289 288 288 289 290 288 291 296 301 302 303 304 306 307 307 308 307 308 307 307 307 307 307 306 307 307 307 308 307 307 308 308 308
327 327 327 326 327 328 327 326 325 325 323 324 323 322 322 321 320 320 320 317 315 314 313 314 310 309 308 306 306 303 301 304 299 295 293 296 296 294 295 295 295 295 295 295 294 297 298 297 295 292 290 289 288 287 287 289 291 292 296 299 300 301 302 302 302 304 305 306 306 306 306 307 307 305 305 305 306 306 306 307 307 307 307 307 308
329 328 328 327 327 328 327 326 325 325 322 323 323 322 322 321 320 322 320 318 317 316 313 313 313 311 308 307 303 302 300 302 298 300 296 292 292 294 295 294 293 294 295 294 294 296 297 296 294 291 289 288 287 286 287 287 286 286 291 298 300 300 301 302 301 302 302 303 304 304 305 306 305 305 304 305 305 305 306 306 306 306 306 306 307
330 329 329 329 325 327 327 327 326 325 321 323 323 322 321 320 319 319 319 317 318 317 315 313 313 312 308 303 303 302 301 298 299 295 291 292 292 290 291 293 292 293 293 293 294 295 297 295 293 291 290 288 287 287 287 287 287 286 294 296 298 299 300 301 301 301 301 301 301 302 304 304 304 304 304 305 305 305 305 305 305 306 306 306 306
330 330 329 329 327 326 327 327 326 325 320 323 323 322 322 322 321 320 320 318 318 317 316 315 315 313 313 308 305 299 300 300 299 296 293 294 293 292 291 291 289 290 291 292 293 294 296 294 292 290 289 288 286 286 286 286 287 288 291 294 295 297 299 300 301 300 300 300 299 300 301 302 302 302 304 304 304 304 305 305 305 305 305 305 305
328 329 329 329 329 326 326 327 327 324 321 322 322 322 322 322 321 320 319 319 318 317 315 316 315 312 310 308 308 306 304 301 301 299 293 290 291 292 290 291 290 289 291 291 293 294 295 293 291 289 287 286 286 287 285 285 289 291 292 293 294 295 296 298 299 300 300 299 299 299 299 299 300 301 302 302 303 303 304 304 304 304 304 304 304
327 328 328 329 328 327 326 326 325 324 323 323 322 322 321 321 320 320 320 319 318 317 316 315 314 311 310 308 307 307 304 301 301 302 296 294 296 293 291 290 289 288 292 290 292 293 293 293 291 289 287 287 287 286 286 287 287 292 288 291 293 294 295 297 299 299 299 298 298 298 299 298 299 299 300 301 302 302 303 303 303 303 303 303 303
327 327 328 328 328 327 326 326 325 325 324 323 322 322 321 321 321 320 320 319 319 318 316 314 313 311 310 307 307 306 305 302 300 301 296 294 293 291 290 289 287 288 290 290 289 291 292 292 291 288 287 288 288 287 287 287 286 291 290 288 292 292 293 294 297 298 298 297 297 298 298 298 298 298 298 299 300 301 301 302 302 302 302 302 302
327 327 329 329 328 327 326 326 326 325 323 323 321 321 322 322 321 320 319 320 318 318 318 316 312 310 308 306 305 305 305 299 300 299 294 292 290 291 289 287 286 287 289 287 288 289 289 291 290 288 287 287 287 286 286 286 286 291 290 286 287 291 292 293 295 296 296 296 296 297 296 296 298 297 297 298 299 299 300 301 301 301 301 302 302
326 327 326 327 328 328 327 326 326 325 322 322 321 321 321 321 320 321 320 320 318 317 317 314 309 307 305 305 303 302 301 295 298 298 294 294 292 291 290 288 285 286 287 288 287 286 288 287 288 287 287 286 286 286 285 285 288 291 288 284 284 289 291 292 294 295 295 295 295 296 296 296 297 297 296 296 297 297 298 299 299 300 300 300 300
325 324 325 326 327 328 327 326 327 326 324 323 322 322 322 321 320 319 319 319 318 316 315 311 309 307 306 302 300 298 297 294 295 294 292 292 291 291 290 289 286 284 286 286 285 285 288 286 288 287 286 286 286 285 288 287 286 290 287 283 284 284 289 291 293 293 293 293 294 295 295 296 296 296 295 295 295 296 296 296 297 297 297 297 298
324 323 324 325 326 327 327 326 326 326 324 323 323 322 322 321 319 318 318 315 316 315 311 310 308 306 304 301 300 296 293 293 293 292 292 291 291 290 290 289 288 285 284 284 285 284 287 285 284 288 286 286 286 285 285 284 287 286 283 283 283 282 288 291 291 292 292 292 293 294 295 295 295 295 294 294 295 295 295 295 295 296 296 297 298
322 322 323 324 325 320 326 325 325 324 324 323 322 321 320 319 317 316 315 312 313 311 310 309 305 303 301 297 295 293 292 292 291 291 291 291 290 291 289 288 287 287 285 285 285 284 286 286 284 285 285 285 285 287 286 284 289 285 283 282 282 282 290 290 289 290 290 291 292 293 294 294 294 294 293 293 294 294 295 295 295 295 296 296 297
319 321 322 322 323 324 324 323 322 322 322 321 320 319 318 316 314 313 310 310 309 307 306 306 303 301 297 296 293 292 291 291 290 290 289 290 289 289 288 288 288 286 285 283 282 284 286 285 285 284 284 285 286 284 285 284 286 285 282 282 281 287 288 286 288 288 289 290 291 292 292 292 293 293 293 293 293 294 294 294 294 294 294 295 295
320 321 322 322 322 322 321 321 320 319 319 319 318 318 316 314 311 309 308 309 307 304 302 302 301 299 296 294 291 291 289 289 289 289 288 288 288 288 288 287 286 286 285 281 282 284 285 284 284 285 285 284 285 284 284 284 285 287 282 282 282 285 282 281 286 287 287 288 290 290 290 290 291 291 292 292 293 293 293 293 293 292 293 293 294
319 319 320 321 322 322 321 318 318 317 317 316 316 315 312 310 308 308 306 306 305 302 300 298 298 297 295 294 290 289 288 288 287 287 288 287 287 287 287 286 285 284 285 282 281 283 284 284 284 284 285 284 283 284 284 282 281 282 284 281 281 280 280 281 280 284 285 287 288 289 288 289 289 289 290 290 291 291 291 292 291 290 290 291 292
317 319 319 320 320 321 320 318 317 316 316 316 313 312 310 307 306 306 306 305 304 301 299 298 295 295 294 293 290 287 286 287 286 286 286 286 286 286 286 285 284 285 283 283 282 283 283 283 283 284 284 283 281 283 283 282 282 281 280 280 280 280 280 280 280 280 285 286 288 287 287 287 288 288 288 288 289 289 289 290 289 289 289 290 291
314 317 318 318 319 319 317 316 315 313 314 313 311 310 309 307 304 303 303 303 303 300 299 298 296 294 292 291 289 287 286 286 285 285 285 285 286 286 285 285 284 284 283 283 283 282 282 282 282 283 282 283 283 282 282 282 282 281 280 279 279 280 280 279 279 280 284 286 287 286 286 286 286 287 287 287 288 288 288 288 288 288 288 289 290
313 313 315 317 317 316 315 313 312 312 311 310 309 309 309 307 305 303 302 301 300 299 299 297 295 292 291 289 287 286 285 285 284 285 285 285 285 285 284 284 284 283 283 283 282 282 282 282 282 282 283 281 281 281 282 281 280 280 279 279 279 279 278 279 278 278 282 285 285 284 284 284 285 285 286 286 286 287 287 287 287 287 287 288 289
313 313 313 315 315 315 313 311 311 310 309 308 307 307 307 306 304 303 302 301 300 298 297 295 292 292 291 289 287 286 285 284 284 284 284 284 284 284 284 284 284 283 284 283 283 282 282 281 281 282 282 281 281 281 280 279 279 278 278 278 278 278 277 277 278 280 282 283 282 282 282 282 283 284 285 285 285 286 286 285 285 285 286 287 288
312 312 313 311 311 312 311 311 310 309 307 306 306 306 304 302 301 300 298 297 296 295 294 293 292 291 289 288 286 286 285 284 284 284 284 284 284 284 283 283 283 283 282 282 282 282 282 281 281 281 281 281 280 279 280 279 279 278 278 278 278 278 277 277 277 278 278 278 277 278 279 280 281 282 284 284 284 284 284 284 284 285 286 287 288
310 310 308 308 306 308 308 308 308 307 305 304 304 303 302 300 299 297 295 294 293 293 292 291 289 288 287 286 286 285 285 284 284 284 284 284 284 284 284 283 283 282 282 282 282 281 281 280 280 281 280 280 280 279 279 278 277 277 275 275 275 277 277 275 275 275 275 276 278 279 279 279 280 279 281 282 282 283 282 282 283 284 285 286 288
307 308 307 306 304 305 305 305 306 304 303 302 301 300 298 297 296 295 294 292 291 290 289 288 287 286 286 286 286 285 285 285 285 285 285 285 284 283 283 283 283 282 282 282 281 281 280 280 280 279 280 280 278 278 278 277 275 274 274 273 271 273 275 275 274 273 273 275 274 274 277 277 277 278 280 279 280 281 281 280 281 283 284 286 287
303 302 303 306 304 303 302 303 302 300 301 301 300 298 296 295 294 293 292 291 290 289 287 286 285 285 285 285 285 284 284 285 286 286 286 286 285 283 283 283 282 282 282 282 281 280 280 280 279 280 279 278 278 277 275 273 272 271 271 273 271 274 274 273 273 274 272 273 273 272 273 273 273 274 275 274 276 278 277 279 279 282 284 286 287
296 296 298 298 300 302 300 298 297 298 299 300 295 295 296 296 294 293 291 290 289 288 287 285 284 284 284 284 284 284 285 285 285 287 287 287 287 285 284 283 283 282 282 281 280 280 280 279 279 279 278 278 277 276 275 275 274 273 273 271 270 272 272 270 270 271 271 273 272 270 271 273 271 273 273 273 275 276 275 275 278 282 283 286 286
294 294 295 296 295 295 298 298 297 297 298 298 294 295 296 295 294 292 290 289 288 287 287 286 284 283 283 283 283 284 285 285 285 287 287 287 287 287 286 285 285 283 282 280 280 280 279 279 280 279 278 277 276 276 276 273 273 272 272 271 270 270 270 269 266 269 272 272 270 269 270 272 271 271 272 272 273 274 275 276 282 283 284 285 286
291 291 292 295 295 294 295 295 295 295 296 294 295 295 295 295 293 291 290 288 287 287 286 285 284 283 282 283 283 284 284 284 285 286 286 287 287 287 286 286 286 285 285 282 280 280 280 278 278 278 278 277 275 275 274 274 273 271 271 270 269 271 270 269 269 266 269 273 269 267 268 269 270 270 270 272 273 274 275 278 281 283 284 284 285
289 290 292 292 292 291 292 293 293 292 292 292 294 294 294 294 292 290 288 288 287 286 285 284 283 282 282 282 282 283 283 284 284 284 284 284 286 286 286 286 286 286 285 285 284 282 282 279 278 278 278 277 275 275 275 275 276 269 270 270 272 273 272 270 269 266 270 270 267 265 266 268 269 270 269 271 272 273 273 276 281 282 283 283 284
289 290 290 290 290 291 291 292 291 290 290 290 293 293 293 292 291 290 287 287 286 285 284 283 283 282 282 282 282 281 282 283 283 283 283 283 283 282 282 281 282 283 285 285 284 283 282 280 278 277 277 276 275 276 277 277 272 268 269 271 273 272 271 270 268 269 271 271 267 266 264 265 268 267 268 270 272 272 271 276 279 281 282 283 283
289 290 290 290 290 290 290 290 289 289 290 291 293 293 292 292 292 289 287 286 285 284 283 283 282 282 282 282 282 282 282 282 282 283 282 282 281 280 280 279 280 280 281 281 281 281 280 279 278 277 277 277 277 276 276 276 273 273 275 274 274 273 270 267 266 266 268 269 269 268 262 264 266 266 267 269 270 270 269 273 278 280 281 281 282
288 289 289 289 289 289 289 289 289 289 288 290 292 292 292 292 291 286 285 285 283 283 282 282 281 281 282 282 281 281 281 281 283 284 283 281 280 278 278 278 278 279 279 280 281 281 279 278 278 277 277 277 278 276 276 275 276 277 275 270 267 261 263 262 263 262 263 267 271 269 262 261 265 267 268 270 269 268 268 266 275 278 280 280 281
288 288 288 288 288 289 288 288 288 288 287 289 291 291 291 292 288 285 285 284 283 282 281 281 281 281 281 281 281 281 281 281 283 285 285 282 279 278 277 277 277 277 277 279 282 282 282 282 281 281 281 281 281 281 281 281 279 277 271 269 265 259 262 262 261 258 262 265 268 269 264 264 266 268 269 269 269 268 264 265 269 275 278 279 280
288 287 287 287 287 287 287 287 288 287 287 287 290 291 291 290 287 285 284 283 282 282 280 280 280 280 280 281 281 281 281 281 285 286 285 282 278 278 277 277 276 275 275 277 278 280 282 281 281 280 279 279 279 280 280 280 280 277 268 265 262 261 261 260 261 260 264 265 266 271 265 263 266 269 269 270 268 263 264 266 271 271 274 275 278
287 286 286 287 286 286 286 286 286 287 286 287 290 290 290 290 287 285 284 283 281 281 280 279 279 279 280 281 282 281 281 282 286 286 285 282 279 278 277 277 276 275 276 277 277 276 274 273 273 273 274 275 274 272 274 278 278 276 271 267 263 262 261 259 261 261 262 262 267 270 265 265 267 268 269 267 262 263 262 267 268 267 268 269 271
Wind_Speed
5 5 4 6 6 5 5 6 5 5 4 5 5 5 4 4 4 2 1 3 1 2 1 1 1 1 1 1 1 0 2 0 1 5 5 4 3 6 10 8 8 9 10 10 10 10 10 10 12 14 16 16 17 18 18 17 17 17 17 17 17 17 17 17 17 17 17 17 17 17 18 18 18 19 19 20 20 21 21 22 22 23 24 24 24
6 6 5 5 4 4 5 5 5 6 5 6 6 3 4 2 0 0 2 2 2 0 1 0 1 1 0 3 2 1 2 2 0 4 5 4 4 5 10 9 8 9 10 10 10 10 10 11 13 15 17 16 16 16 16 16 16 16 17 17 16 16 17 17 17 17 17 17 17 18 18 19 19 20 20 20 21 21 22 22 23 24 24 24 24
6 6 5 5 5 6 6 5 4 6 5 6 4 5 3 3 4 3 1 0 2 2 2 1 3 2 0 3 4 2 1 1 4 3 5 5 4 4 6 9 8 8 10 11 10 10 11 12 14 16 17 16 15 15 15 15 15 16 16 16 16 16 17 17 17 17 17 17 18 18 19 19 20 20 20 21 21 21 22 22 23 24 24 24 24
7 6 6 6 6 6 6 5 6 6 6 4 5 3 1 2 1 2 3 3 2 2 2 3 3 3 1 3 2 1 0 3 4 2 4 5 6 5 5 6 8 9 10 11 10 11 13 14 15 17 17 15 15 15 15 15 15 15 16 16 17 17 17 17 18 17 18 18 18 19 19 20 20 20 20 20 21 22 23 23 23 24 24 25 26
7 7 7 6 7 6 6 6 6 6 5 5 4 3 2 2 1 2 2 1 2 3 3 2 3 3 2 3 1 2 1 4 3 3 4 5 6 5 5 5 5 9 10 8 9 13 14 15 17 17 16 16 15 15 15 15 15 15 16 16 17 17 17 17 18 18 18 18 19 19 19 19 19 19 20 20 21 21 21 23 23 24 25 25 26
7 6 7 7 7 7 7 6 6 6 6 6 5 6 4 2 4 2 4 3 4 4 3 5 4 2 1 2 3 2 3 4 4 4 5 7 6 6 5 5 6 5 6 9 8 11 14 16 17 17 16 16 16 16 16 15 15 15 16 16 17 17 17 17 18 18 18 18 18 18 18 18 19 19 19 20 20 21 22 24 23 25 26 25 25
6 7 7 7 7 7 6 7 6 6 6 6 6 4 3 4 3 3 4 5 4 4 4 5 3 3 3 3 2 1 4 4 3 3 6 6 6 5 6 5 5 5 6 6 8 10 12 15 17 16 16 16 17 17 17 16 16 15 16 16 16 17 17 17 17 17 17 17 17 17 17 18 18 19 19 20 20 22 23 24 23 24 25 24 26
6 6 7 7 7 7 7 6 5 6 6 6 4 4 4 4 5 6 5 4 3 2 2 2 1 1 1 2 2 2 5 4 3 5 6 6 5 5 6 6 5 5 5 6 6 7 11 14 16 16 16 16 16 17 17 17 16 16 16 16 16 16 16 16 16 16 16 17 17 16 17 18 18 18 19 20 21 21 23 23 23 24 25 26 28
6 6 6 7 6 6 7 7 5 6 6 6 6 7 5 4 4 4 4 3 2 0 2 2 3 1 2 1 0 3 5 4 3 6 5 6 5 5 6 5 5 5 5 6 5 6 10 13 14 15 15 16 16 17 17 17 17 16 16 15 15 15 15 15 16 16 16 16 16 16 17 18 18 19 19 20 21 22 23 24 25 24 26 27 27
7 6 7 7 7 7 7 7 6 6 6 6 7 6 5 5 5 4 4 3 3 2 3 1 2 1 1 0 1 3 5 4 4 5 7 6 5 5 5 6 6 5 6 5 5 6 6 9 12 13 13 15 16 16 17 18 17 17 16 15 15 15 14 15 15 15 15 15 16 17 17 19 19 19 20 21 22 23 24 24 25 26 27 27 28
9 7 7 8 7 7 7 7 7 7 7 7 7 6 5 5 5 4 3 4 5 4 4 4 2 1 1 2 1 3 4 4 5 5 6 5 6 4 5 6 5 5 5 5 5 5 5 5 6 5 8 15 15 16 17 18 17 17 17 15 15 14 14 14 15 15 15 16 16 17 18 19 19 20 21 22 22 23 24 25 26 27 28 28 29
10 9 8 8 8 8 8 7 7 8 8 7 7 7 7 6 6 5 4 2 1 4 5 4 1 0 2 2 1 3 4 4 4 5 6 6 5 5 6 5 5 5 5 4 4 4 5 5 5 5 6 10 15 14 15 17 17 17 16 16 14 13 13 14 14 15 15 16 17 18 19 19 20 21 22 23 24 24 26 26 27 27 28 29 31
10 10 9 9 8 7 8 7 7 8 8 8 8 8 7 7 7 6 6 4 3 3 4 5 3 1 1 2 1 0 3 6 6 6 5 5 5 7 6 6 4 5 4 5 5 5 5 5 5 5 5 6 7 10 13 15 17 16 17 16 14 14 13 14 15 15 16 16 18 19 19 20 21 21 22 23 24 25 25 27 27 28 29 30 30
11 11 10 10 9 7 8 8 8 8 8 7 7 7 7 6 6 4 4 6 4 5 5 6 0 3 2 1 2 2 2 3 6 5 5 4 5 5 5 6 5 5 4 6 4 5 5 5 4 5 5 6 5 5 6 7 10 15 15 15 15 14 14 14 15 15 16 17 18 19 20 20 21 22 23 24 25 25 26 27 28 28 29 30 31
11 11 10 10 10 9 8 8 8 8 7 7 7 8 7 8 7 7 3 1 2 3 6 6 5 3 2 5 3 3 0 3 2 2 4 4 4 4 4 5 6 5 6 6 6 5 5 5 6 5 5 5 5 5 5 6 7 12 12 13 14 14 14 14 15 16 17 17 19 19 20 21 22 22 23 24 25 25 26 27 28 29 30 31 31
11 10 9 10 10 10 9 8 9 8 9 9 8 8 7 7 7 8 7 4 3 5 5 6 5 7 3 3 5 5 4 5 4 0 1 4 5 4 3 5 5 4 5 7 5 5 5 6 6 5 5 5 4 4 5 5 7 8 9 9 13 14 14 14 15 16 17 18 20 20 21 21 22 23 24 24 25 26 27 28 28 29 30 31 32
11 11 10 11 10 10 10 9 8 9 9 9 9 9 8 8 9 8 9 8 6 5 5 5 5 5 6 4 2 2 5 4 5 1 1 3 1 4 4 5 5 5 6 5 5 6 6 6 6 5 5 5 4 4 4 4 5 4 6 7 12 13 14 15 15 16 18 19 20 20 20 21 21 22 23 24 25 26 27 28 29 30 30 31 32
11 12 12 11 12 12 11 10 9 8 8 8 8 7 8 8 9 9 8 7 8 5 6 4 5 5 5 4 4 4 6 5 7 4 0 1 1 1 4 4 4 5 5 5 6 5 6 6 5 6 5 5 4 4 3 4 4 5 5 6 13 13 14 15 15 16 18 19 19 20 20 21 22 23 24 25 26 27 27 28 29 29 30 31 31
12 12 12 12 12 11 11 11 10 8 7 8 8 9 8 9 7 8 8 7 6 7 8 7 2 3 3 3 3 1 4 8 6 6 4 1 0 1 1 2 4 5 5 5 5 6 4 6 6 6 5 4 4 3 3 3 4 5 11 14 14 14 14 14 14 16 18 19 20 20 21 22 23 24 25 26 26 26 27 28 28 29 30 30 31
12 12 13 13 12 12 11 10 10 9 8 9 9 8 8 7 8 9 7 8 9 8 8 7 9 6 5 5 3 3 3 2 2 7 7 8 4 1 0 1 3 4 5 6 6 7 6 5 6 6 6 4 3 3 3 3 3 4 6 15 14 14 14 14 15 16 18 19 20 20 21 22 23 24 25 26 26 26 27 27 28 29 30 30 30
12 13 12 13 12 12 11 11 10 10 9 9 8 9 10 9 8 8 8 7 8 8 8 8 7 7 5 2 3 3 2 2 3 3 5 5 2 4 5 1 2 0 4 4 5 6 6 6 6 6 5 3 3 4 3 4 4 4 7 14 14 15 15 16 16 17 18 18 19 20 21 23 23 24 25 25 25 26 26 27 28 28 29 29 30
12 11 12 12 12 12 11 12 12 11 9 10 9 9 9 9 10 10 9 9 7 8 9 8 8 6 8 8 7 3 2 1 2 3 1 2 8 9 8 8 6 3 1 4 5 5 6 6 6 5 4 4 3 4 3 3 3 2 6 14 14 15 16 17 17 18 18 18 19 20 21 22 22 24 24 25 25 25 26 27 27 28 29 29 30
9 10 12 11 12 12 12 12 11 10 10 10 10 10 10 10 9 9 10 11 9 9 8 9 8 7 6 7 9 9 8 7 8 6 5 4 3 4 4 6 7 6 5 4 6 5 6 6 6 5 4 4 3 3 3 3 3 4 7 14 15 16 17 17 17 18 18 18 19 20 20 20 21 23 23 24 25 25 26 26 27 27 28 29 29
9 10 10 11 10 11 12 11 11 10 11 10 9 9 9 9 9 9 9 10 9 9 9 9 9 7 7 7 7 8 7 7 7 8 8 7 9 9 8 3 1 2 2 2 2 6 5 6 5 5 4 5 3 3 3 4 5 8 7 11 15 16 17 17 18 18 18 18 18 19 20 20 21 22 22 23 24 25 25 26 26 26 28 29 29
11 12 11 12 11 11 11 11 11 11 11 9 9 10 9 10 10 10 10 10 9 9 8 9 9 9 8 8 8 8 8 6 6 7 4 4 7 7 4 4 5 3 3 4 2 1 1 5 6 4 4 4 3 4 4 5 4 6 7 7 13 15 16 17 17 17 17 17 17 18 19 20 21 21 22 23 23 24 25 25 25 26 27 28 29
12 13 12 11 10 10 11 12 11 10 10 10 9 9 10 10 10 11 10 9 8 10 9 9 8 9 7 8 8 9 8 7 6 6 7 7 7 10 7 1 2 6 2 4 3 4 0 2 1 3 3 4 5 4 4 5 5 5 7 6 7 12 15 16 16 16 16 17 17 17 18 19 20 21 21 22 23 23 24 24 25 26 27 28 28
11 10 8 10 11 10 10 11 10 10 9 10 9 10 10 9 9 10 9 8 9 9 8 8 8 7 6 8 8 7 7 7 7 7 7 7 8 8 9 8 2 2 3 2 3 4 5 2 2 1 2 4 5 4 4 4 4 6 5 4 5 9 12 15 15 16 16 17 17 17 18 19 20 21 20 20 21 22 23 24 24 25 26 27 28
9 9 10 11 12 12 11 11 10 10 10 11 10 10 10 10 9 8 10 7 9 9 8 8 9 9 9 6 6 7 6 6 7 7 7 6 6 7 7 9 10 5 1 3 3 3 4 4 1 0 2 4 3 4 5 5 4 4 4 4 4 5 9 13 14 15 16 16 16 16 17 18 19 20 20 20 21 21 22 23 24 25 26 26 27
10 9 11 11 11 12 12 11 11 10 10 11 11 10 10 10 9 9 10 8 9 10 8 9 8 8 7 8 8 7 6 4 5 6 5 4 5 6 7 9 7 8 6 6 6 5 4 1 3 1 1 2 4 3 5 4 4 3 3 3 4 4 7 13 14 15 16 16 16 16 17 18 19 19 19 19 20 21 22 23 23 25 25 25 26
10 10 10 11 11 12 12 11 11 10 11 11 10 10 10 9 9 9 8 8 9 7 9 9 8 7 6 5 5 6 4 5 6 5 5 6 6 6 6 5 6 8 6 8 7 3 3 1 1 2 0 1 3 4 3 3 2 3 3 3 4 4 9 10 12 14 15 16 15 15 16 17 18 19 19 19 20 21 22 22 23 24 25 26 26
10 10 11 10 11 11 11 11 10 11 11 11 11 10 10 8 8 8 7 8 8 8 6 7 7 8 7 7 5 6 4 5 5 5 4 6 6 6 6 6 5 5 7 5 4 2 3 4 1 1 3 1 2 3 3 1 1 3 3 3 4 7 8 5 10 13 15 15 15 15 16 18 18 18 19 19 20 21 21 22 23 24 25 25 26
10 11 11 12 12 11 10 10 10 10 11 11 12 11 10 9 9 8 8 9 8 7 6 4 6 7 9 8 7 7 5 5 5 5 5 4 6 6 6 6 5 4 5 5 6 4 2 2 4 2 4 3 2 4 1 1 2 5 3 3 3 5 3 3 6 12 14 14 14 14 16 18 18 18 19 19 20 20 21 22 23 24 24 25 25
10 11 12 12 12 12 11 10 10 10 10 10 10 10 10 10 10 10 9 9 10 8 8 7 5 7 8 8 7 5 5 6 5 5 5 6 6 6 6 6 6 3 4 3 6 4 1 2 2 2 1 3 1 1 0 0 2 3 3 2 3 3 3 4 4 8 13 14 13 13 17 18 18 18 19 19 20 20 21 21 23 23 23 24 25
9 11 12 11 11 11 11 11 10 10 11 11 10 10 11 11 11 9 10 11 11 10 9 9 8 6 7 8 7 6 5 6 5 6 6 7 7 7 6 6 6 4 2 3 3 5 5 0 2 1 2 2 1 0 2 1 1 1 3 3 3 3 3 5 5 6 12 13 12 13 17 17 17 17 18 18 19 19 20 21 22 22 22 24 24
9 10 11 10 10 11 11 10 10 10 11 12 12 12 12 13 12 10 10 12 12 12 11 10 10 8 9 9 8 7 5 6 5 5 5 6 6 7 6 5 6 4 2 3 4 4 7 3 1 2 1 1 1 1 1 2 1 1 1 2 3 4 3 3 5 5 10 13 11 14 17 17 17 17 17 18 18 18 19 20 21 21 21 23 24
10 8 9 10 11 11 10 10 10 10 11 10 11 13 14 13 13 14 13 12 10 10 11 12 11 11 11 9 8 8 8 8 6 6 5 6 7 6 6 5 6 5 3 3 2 4 3 5 2 3 1 1 1 0 1 1 2 2 2 1 3 5 4 3 3 4 7 11 11 15 15 15 16 16 17 18 18 19 20 21 21 20 21 22 23
9 9 9 9 11 11 11 11 10 10 11 11 11 10 10 11 12 13 13 13 12 12 11 10 10 11 10 11 10 9 9 9 7 7 7 7 6 7 7 6 6 4 3 3 3 3 4 5 3 1 2 2 1 1 0 1 2 1 2 3 3 5 5 3 2 4 7 8 10 13 13 13 14 15 16 18 19 19 20 20 20 20 21 22 22
8 8 9 8 9 10 10 11 11 11 9 9 11 11 11 10 9 9 9 10 10 10 9 8 9 9 10 9 10 10 10 11 10 8 8 8 7 7 7 6 6 5 5 3 4 4 4 3 4 2 1 2 1 1 1 2 1 2 1 2 2 1 2 7 4 2 1 2 4 6 8 9 12 15 16 17 19 19 20 20 20 20 21 22 22
8 8 6 8 6 7 7 9 10 10 10 9 9 10 10 10 11 11 10 9 8 8 8 9 8 8 8 8 9 10 11 10 11 11 10 8 8 8 8 8 7 6 6 5 5 4 4 3 2 3 3 2 2 3 1 2 3 2 3 5 2 2 0 2 6 2 0 3 5 10 10 9 10 9 14 16 17 18 19 19 19 20 21 23 22
6 7 8 6 6 7 7 7 7 8 10 10 9 8 8 8 8 8 10 10 9 6 7 7 8 8 8 8 9 9 9 9 10 10 11 11 8 8 6 7 7 7 6 6 5 5 5 4 5 5 4 4 1 1 1 2 4 2 2 1 4 6 6 4 2 3 2 3 5 6 7 7 6 8 10 12 15 18 18 17 18 18 21 22 21
4 4 4 7 11 9 7 8 8 7 9 11 10 10 10 8 7 8 9 9 10 9 8 7 7 8 7 8 7 7 6 7 9 10 10 10 11 10 7 8 8 8 7 6 5 5 5 5 4 3 4 4 4 4 1 1 2 1 1 0 2 2 4 5 4 2 2 4 5 4 5 5 4 5 6 6 7 13 12 17 13 18 21 21 21
4 5 5 5 5 9 9 7 6 7 8 8 11 17 17 13 12 10 8 8 9 10 10 10 8 8 9 8 7 9 10 10 11 11 12 11 9 10 12 11 10 8 8 8 7 6 6 6 7 6 5 6 6 5 3 2 2 2 0 0 1 3 2 3 2 0 1 5 6 7 6 5 3 4 5 6 6 8 7 7 9 15 19 21 21
4 4 5 4 4 4 6 9 10 9 8 9 13 12 11 13 12 11 12 10 10 10 11 12 12 10 8 8 7 9 10 10 10 13 12 12 10 9 8 9 9 11 11 8 7 7 8 7 5 5 5 6 5 4 3 3 2 2 1 1 2 2 2 4 3 5 1 5 5 5 7 6 3 5 5 5 6 7 7 8 17 20 21 20 21
3 2 3 5 5 4 4 5 6 7 8 8 13 15 16 15 13 12 10 10 10 10 10 10 9 9 10 9 7 7 8 9 9 9 10 11 10 10 11 10 8 5 6 8 9 8 7 7 6 7 6 6 4 4 3 3 3 1 1 1 1 1 1 1 1 2 3 5 4 4 7 4 2 4 5 5 6 5 8 13 18 20 20 20 20
3 3 4 4 4 4 4 5 5 5 4 6 9 10 11 12 10 5 6 9 11 11 10 10 10 10 9 9 9 6 6 11 9 8 8 9 10 11 10 9 8 10 9 7 5 5 7 6 7 6 7 5 5 3 4 4 3 3 2 1 1 1 1 2 3 2 5 2 2 3 3 4 2 5 5 5 5 5 6 10 17 19 20 19 20
3 3 2 4 3 4 5 5 4 3 3 6 11 13 12 12 11 9 7 7 8 9 11 11 11 11 12 12 11 9 7 8 7 9 9 9 9 8 7 6 5 6 7 7 6 5 5 5 6 6 3 4 4 4 5 4 4 3 3 2 1 1 2 3 3 4 5 1 1 2 2 1 2 3 5 5 4 5 4 9 17 19 19 19 19
5 5 5 5 5 5 5 4 4 4 4 7 12 14 16 17 17 10 8 8 7 8 9 10 11 11 11 11 11 12 11 10 9 10 11 10 9 8 7 6 6 5 4 4 4 3 3 3 3 3 4 4 6 7 5 4 4 3 3 2 1 1 1 2 3 2 3 1 2 1 2 3 1 3 3 5 5 5 3 6 15 19 20 19 19
2 3 2 3 4 5 4 5 5 6 4 8 11 12 13 13 12 6 7 8 7 8 8 8 8 7 7 9 10 10 11 10 11 15 11 10 9 10 9 6 5 4 3 2 4 3 3 2 3 5 4 6 7 5 5 4 3 3 4 4 3 3 3 4 4 3 0 4 1 1 2 2 2 3 4 5 4 5 4 2 10 19 19 19 19
3 3 3 2 2 4 4 4 6 4 4 8 11 13 13 15 10 6 7 6 6 8 8 7 8 8 8 9 9 10 11 10 14 17 16 13 10 10 9 8 6 5 4 3 7 7 7 8 8 8 7 5 5 5 6 7 6 5 4 1 1 1 2 3 4 2 2 1 2 2 1 4 3 4 6 4 4 4 2 3 5 13 19 19 19
4 3 3 3 2 3 3 4 4 5 4 8 13 15 17 17 12 9 8 8 7 7 7 5 5 7 8 11 9 10 11 11 17 18 18 13 10 10 10 10 9 7 5 3 4 4 7 6 6 6 4 3 4 4 5 5 5 8 6 4 3 4 0 1 2 2 5 3 2 2 2 2 4 5 6 5 5 2 0 3 6 9 13 12 18
2 2 2 3 3 3 3 4 6 6 5 7 13 15 16 17 12 7 8 8 9 8 8 7 5 6 7 9 11 9 8 12 20 19 19 14 10 10 10 10 9 9 8 8 7 7 5 4 2 2 2 3 3 3 1 4 5 5 4 4 5 4 3 2 1 2 5 1 2 3 4 4 5 6 7 6 1 3 2 2 4 5 6 6 8
Wind_Direction
179 199 184 193 199 189 186 192 191 210 182 209 201 204 219 212 216 223 279 317 314 241 185 245 239 194 200 169 200 129 315 311 251 91 128 123 120 102 95 85 69 65 57 57 62 64 68 72 75 77 75 74 70 68 66 63 59 56 54 51 50 47 44 40 38 37 34 31 28 24 20 18 17 13 10 8 5 3 1 360 358 356 354 351 349
182 194 179 195 194 187 184 191 189 209 183 194 217 190 207 216 296 192 183 186 80 318 189 299 301 299 115 193 226 180 231 321 115 130 129 137 125 99 96 89 82 73 68 68 68 76 81 88 86 83 81 73 70 68 65 62 58 55 54 52 50 48 44 40 37 35 32 29 26 22 19 16 15 11 8 6 4 1 360 359 357 354 351 348 346
180 186 191 180 190 174 191 191 198 216 189 205 186 193 170 153 181 180 172 197 220 186 177 231 260 336 264 209 218 183 214 152 105 114 128 133 127 97 82 75 70 69 76 75 78 82 87 86 88 86 82 77 71 67 64 62 59 56 53 52 50 47 43 39 35 33 30 26 23 19 17 15 12 10 7 4 1 359 358 357 355 352 349 347 345
182 182 187 180 187 191 192 193 197 211 192 184 164 173 151 190 201 208 199 182 226 231 194 232 278 277 283 231 226 58 154 124 117 121 110 127 112 106 93 81 70 71 72 78 84 87 85 87 86 84 79 73 70 67 64 60 58 56 53 50 48 44 41 37 33 30 27 24 21 18 15 12 10 7 4 1 359 358 358 356 353 351 349 347 346
189 183 185 183 187 191 195 200 195 191 178 163 155 155 195 265 296 288 303 322 313 296 300 291 266 274 218 250 144 106 74 115 119 115 98 104 117 121 109 97 85 73 72 70 79 90 92 89 86 80 74 69 66 63 61 58 55 53 51 48 45 42 38 35 31 27 24 22 18 16 13 10 7 5 2 359 359 358 356 354 353 351 349 349 347
187 191 178 185 187 194 192 205 197 179 164 157 164 181 197 211 243 232 248 231 249 254 270 277 295 306 155 214 107 151 130 121 137 129 102 101 120 126 125 110 98 90 77 61 61 93 95 92 86 77 70 66 62 59 57 55 53 50 47 46 43 39 36 33 29 26 23 20 16 13 10 7 5 3 0 359 358 357 356 356 355 351 350 349 346
187 186 182 179 179 196 197 198 181 172 163 177 173 196 184 218 230 217 222 218 233 259 239 236 185 184 168 128 114 74 98 132 140 94 106 117 120 125 125 124 112 99 89 80 62 66 86 90 83 74 69 64 60 55 53 52 51 48 45 43 41 38 35 32 29 25 22 18 14 11 8 6 4 2 360 359 358 358 357 356 354 352 350 348 347
190 186 183 183 174 181 192 185 177 169 176 178 169 188 192 205 203 178 169 194 180 218 179 213 114 186 139 113 136 101 122 140 126 98 111 109 105 101 110 125 129 115 108 100 92 82 76 83 83 74 66 62 58 53 50 48 47 46 42 40 39 37 34 31 28 23 20 17 12 9 8 6 4 2 0 360 359 358 357 356 354 352 350 349 348
195 189 188 189 179 183 196 191 176 177 178 178 180 198 186 194 213 193 154 192 155 165 81 122 115 110 61 51 323 77 140 152 132 122 110 108 112 103 101 112 125 122 119 111 106 102 91 86 84 78 67 60 57 52 47 44 43 41 39 37 36 36 32 29 27 22 18 15 10 8 8 6 4 2 1 1 360 358 357 355 354 352 350 350 348
194 190 191 195 187 187 197 195 180 182 178 171 189 194 190 183 194 204 177 170 161 131 126 101 116 87 34 333 324 123 150 139 144 123 109 114 112 111 115 117 117 130 129 127 124 110 103 93 86 79 71 63 57 51 46 41 39 38 35 33 33 32 31 27 25 21 16 12 10 9 8 7 4 3 2 1 359 358 357 355 354 353 351 350 348
197 188 190 192 192 194 196 196 185 184 181 180 189 193 197 194 189 192 205 184 163 177 159 156 150 158 250 268 41 167 125 133 130 114 105 119 124 125 111 112 111 118 131 135 128 116 105 101 93 83 74 68 59 53 46 39 36 35 31 28 29 27 28 25 23 21 14 11 10 9 9 7 5 3 2 1 359 358 358 356 354 353 351 349 346
197 196 192 191 195 198 199 189 186 181 183 183 194 191 194 195 196 170 180 211 154 156 143 132 117 87 267 306 54 174 148 139 119 108 111 113 124 121 118 126 111 111 118 129 128 123 117 112 102 97 83 67 64 57 49 40 33 33 30 24 23 24 25 23 22 19 13 11 10 10 10 7 6 4 3 1 360 359 358 356 354 352 350 347 345
196 196 200 197 197 198 198 195 184 184 185 192 191 195 194 185 184 175 166 179 211 157 179 128 120 331 18 9 42 18 165 136 119 115 116 126 124 115 127 119 129 116 122 119 118 119 122 119 115 99 82 72 57 58 55 44 33 30 27 21 18 19 20 21 18 17 13 11 12 11 9 7 6 4 3 1 0 0 357 355 353 352 348 346 344
195 196 200 199 199 198 199 197 188 190 190 190 191 194 194 189 171 181 184 174 201 179 184 118 98 183 140 61 36 34 7 96 118 120 128 126 116 115 120 129 138 135 122 105 103 105 110 112 109 99 86 75 68 65 56 47 33 27 25 19 14 16 16 17 17 15 12 12 13 10 10 7 6 5 3 2 1 359 356 354 352 349 347 346 344
194 196 197 200 201 200 202 198 196 189 189 197 194 198 192 189 182 176 181 78 161 203 175 164 173 161 125 106 166 122 131 60 40 103 125 119 110 108 115 123 149 147 134 118 116 110 100 100 100 94 83 75 65 63 64 54 41 24 19 17 13 15 13 15 14 13 13 13 13 10 10 9 6 5 3 1 359 357 354 352 351 349 347 346 344
195 195 198 200 200 203 202 200 200 193 192 194 196 200 190 190 184 185 161 178 175 206 202 172 144 133 150 187 181 138 166 224 161 198 48 104 113 128 116 127 136 132 123 127 130 116 106 101 100 103 96 81 69 69 69 58 36 17 359 354 15 12 12 12 12 12 13 13 12 10 9 8 6 4 2 0 358 355 353 352 351 349 347 346 345
194 195 197 200 201 203 203 202 198 196 194 196 197 199 193 190 185 182 181 173 193 188 219 186 196 191 144 125 98 171 209 181 126 117 80 83 78 126 123 133 131 134 127 125 119 120 121 105 107 103 100 84 66 69 74 59 39 5 353 356 18 14 15 11 10 11 13 12 12 9 8 7 6 4 1 359 357 354 353 352 350 349 348 346 345
195 197 198 198 201 204 204 203 201 197 197 199 197 193 197 190 192 182 188 186 174 180 194 235 197 196 185 169 160 174 171 181 138 187 11 3 161 104 142 136 128 121 123 128 121 123 121 116 110 104 96 82 73 68 83 64 44 4 355 5 20 16 16 12 10 11 13 11 10 8 7 6 6 4 1 358 356 354 352 351 349 349 347 346 344
196 197 198 199 201 202 204 206 206 202 197 196 198 199 198 198 188 189 188 180 163 183 183 191 188 216 169 153 138 147 150 147 188 107 140 239 11 115 184 131 126 121 129 137 130 121 119 117 112 108 93 89 83 81 81 66 43 19 13 20 20 16 14 12 12 11 12 10 9 7 5 6 5 3 360 357 354 353 352 350 350 349 347 346 344
197 198 199 198 200 202 203 204 206 206 194 202 200 198 197 199 191 192 183 180 181 181 184 185 181 207 165 137 119 111 118 94 135 163 153 156 203 307 339 47 115 135 146 145 136 132 131 120 118 109 105 100 108 106 102 83 62 21 3 17 18 13 11 12 12 12 11 9 8 5 5 5 4 1 359 356 353 352 351 351 350 348 346 345 342
203 201 200 200 199 201 200 203 204 203 194 200 200 193 194 191 190 191 188 187 187 182 175 191 189 189 144 159 132 151 120 93 131 112 139 135 175 178 170 17 59 249 169 151 144 135 137 138 131 126 123 127 115 107 88 73 58 30 13 16 14 11 10 10 10 11 10 9 7 3 3 4 2 359 357 355 353 351 351 351 350 348 345 344 342
209 205 204 204 200 201 202 204 205 203 194 200 197 196 196 192 189 190 190 184 186 179 185 185 197 193 185 162 164 120 107 140 171 140 79 142 165 192 178 164 164 222 233 154 144 133 131 131 126 126 121 118 106 96 94 80 80 51 19 17 14 11 8 8 8 8 8 7 5 2 2 2 359 357 355 354 352 351 352 351 349 347 344 343 341
207 210 209 204 203 202 205 206 205 201 197 198 200 196 193 190 186 185 189 186 184 187 185 185 189 189 190 176 180 175 178 181 195 188 166 155 109 170 170 181 170 156 229 189 143 145 140 140 135 128 130 131 131 117 97 82 78 53 32 18 13 9 8 5 6 5 6 5 3 0 1 359 357 355 354 353 352 352 352 350 348 345 343 342 341
209 214 213 208 203 204 207 206 204 201 202 201 197 191 185 182 179 183 189 190 184 184 187 186 185 184 191 189 188 183 181 185 192 183 181 185 165 171 170 148 103 186 170 140 111 142 147 144 141 138 159 139 136 119 84 64 47 45 37 15 9 7 5 2 3 2 3 4 360 358 360 356 355 355 354 352 352 353 351 349 347 344 343 341 340
211 211 212 206 203 205 203 206 207 206 203 196 195 186 182 182 183 184 185 187 187 184 189 194 183 182 192 198 188 181 189 188 162 186 194 151 153 146 200 141 155 163 176 155 151 71 126 148 143 158 175 137 127 93 72 64 48 39 40 12 7 3 2 360 359 358 360 359 356 356 357 354 354 355 355 352 352 352 349 348 345 343 342 341 340
207 211 206 202 206 208 206 210 208 204 198 196 190 187 182 184 184 187 189 189 183 188 193 191 189 191 183 186 193 185 192 176 175 169 170 150 161 161 157 117 101 159 159 177 176 120 84 80 125 178 181 123 106 87 68 60 46 35 36 25 2 358 358 356 355 355 358 355 352 353 353 353 354 354 355 352 351 350 348 346 344 343 342 340 339
211 213 201 204 207 208 208 210 208 202 195 193 189 186 186 184 188 190 188 185 188 187 192 184 186 181 178 190 186 187 179 175 165 187 178 181 164 161 150 142 86 94 164 207 170 197 162 131 172 212 149 108 94 86 74 59 48 40 36 19 6 352 347 351 351 354 355 352 349 350 351 351 353 352 353 352 351 348 347 345 344 343 342 340 338
214 206 208 205 208 210 209 211 207 201 194 194 190 188 187 187 188 188 190 183 187 188 189 179 186 183 182 175 165 182 173 165 165 173 183 174 155 154 151 153 151 187 232 211 205 219 163 135 78 120 119 105 104 101 79 66 37 44 33 19 5 345 336 346 351 353 353 350 347 347 349 350 352 351 351 350 350 347 346 345 344 342 342 340 337
207 201 204 204 206 205 208 210 206 199 194 195 192 191 186 187 187 187 190 183 184 188 175 181 182 174 172 177 175 166 174 152 139 147 153 143 144 152 159 163 166 143 171 201 226 173 223 149 144 195 108 113 103 77 71 49 32 49 36 24 354 341 332 346 350 352 350 348 346 346 348 350 351 351 351 351 349 347 345 346 344 343 342 339 337
198 199 198 200 202 198 203 204 203 196 195 191 190 189 184 187 185 186 182 172 182 181 180 172 170 168 163 157 149 158 163 156 154 149 146 144 136 140 138 135 144 158 165 176 218 193 149 78 115 160 212 134 101 66 81 53 344 54 39 23 350 331 339 349 351 349 347 345 345 346 346 350 351 352 352 352 349 347 347 346 345 344 342 340 339
195 193 196 196 196 194 194 196 193 195 192 188 183 184 182 179 176 172 165 167 168 174 171 164 161 156 162 162 159 157 158 152 141 134 133 133 134 122 118 119 124 138 155 142 137 236 136 156 52 89 143 190 111 94 50 30 353 44 42 11 335 335 350 349 351 349 344 342 343 346 350 352 353 354 355 353 350 348 348 347 347 345 342 340 338
196 194 194 196 193 191 191 188 190 192 192 188 182 181 179 179 169 167 173 168 165 165 165 161 159 162 159 164 171 166 159 144 145 143 136 128 128 123 125 120 115 129 136 136 143 171 38 157 137 117 129 124 107 81 22 338 24 51 35 355 336 349 353 347 351 348 341 338 341 349 353 353 356 358 357 353 350 349 348 348 348 346 343 340 338
191 192 196 195 193 192 190 190 190 190 191 188 185 176 175 172 174 171 169 172 169 170 163 166 168 164 165 166 171 166 153 153 156 147 138 135 118 114 118 117 120 123 130 124 132 144 357 28 109 126 110 105 47 125 107 339 3 358 0 347 16 3 344 353 353 339 335 334 342 355 354 355 359 359 357 354 350 350 349 350 350 347 344 341 339
189 194 195 193 191 190 191 194 195 193 191 187 183 177 175 173 174 173 173 175 177 169 166 170 170 169 164 163 167 161 162 151 156 162 154 140 135 128 130 133 140 141 129 111 130 145 172 287 84 11 75 64 113 286 179 223 33 11 358 344 13 6 353 354 354 331 327 333 345 359 355 357 360 357 355 353 352 352 352 352 351 348 344 341 340
197 194 191 188 189 189 191 191 191 193 195 188 182 180 179 174 173 174 177 179 178 173 173 177 178 170 169 173 170 159 150 147 165 169 153 141 137 136 138 134 136 139 109 107 125 150 159 191 147 91 105 16 142 239 91 156 154 161 34 11 13 347 359 359 346 326 321 332 348 358 358 358 358 354 353 354 354 354 355 354 352 349 345 341 341
193 196 188 185 185 188 190 190 189 190 192 193 188 184 181 178 176 176 175 179 181 184 184 177 172 174 175 166 170 161 153 155 166 167 153 141 140 137 132 134 132 136 116 98 90 131 148 145 223 152 213 135 300 55 126 85 74 26 70 3 10 350 339 342 344 314 314 332 355 358 2 358 354 352 351 353 356 357 357 355 352 349 345 342 342
192 183 189 187 186 187 188 186 188 191 191 187 190 190 186 184 181 178 180 182 183 182 181 177 174 172 171 174 164 161 158 157 170 165 159 151 146 138 139 138 136 132 111 110 100 88 132 153 158 239 190 215 222 111 155 110 336 18 48 43 353 328 319 311 323 297 312 350 358 357 4 358 350 350 351 355 357 358 357 354 352 349 345 343 343
182 186 184 184 188 190 185 184 185 188 188 190 190 187 184 182 179 174 175 178 177 175 170 168 171 174 171 166 163 164 164 170 173 165 160 154 147 145 141 139 137 133 129 116 113 109 124 145 149 190 250 190 197 144 158 111 56 338 4 44 345 299 341 320 315 301 292 9 343 351 357 350 344 348 351 356 356 357 356 353 352 348 345 344 344
178 181 184 179 186 183 186 183 185 183 184 189 194 193 188 184 173 168 169 168 166 167 171 166 164 163 162 160 163 168 174 179 168 167 161 156 155 156 153 147 146 142 144 147 141 138 148 156 187 195 208 258 177 199 186 116 79 98 49 338 348 177 204 288 312 323 147 11 1 353 347 345 344 345 353 356 356 356 356 353 349 346 345 345 345
185 186 176 184 188 177 176 184 192 184 181 187 190 188 183 176 168 172 167 161 159 158 157 156 156 156 155 157 167 176 182 182 173 166 162 157 152 150 154 145 150 150 155 155 153 159 168 181 191 197 204 186 233 47 129 62 53 19 56 87 297 317 332 321 265 284 299 12 352 347 339 333 324 333 349 353 354 355 352 351 339 342 346 345 344
187 196 216 193 173 181 178 183 188 184 185 186 185 181 174 168 168 168 166 159 156 153 149 147 150 150 154 163 171 175 178 184 182 171 167 160 155 155 162 157 157 158 155 162 167 166 178 180 202 194 182 202 208 181 178 99 136 183 244 146 263 275 292 308 315 13 49 5 344 338 326 321 318 334 344 349 349 351 346 344 331 340 347 345 345
186 179 182 198 200 186 178 180 183 184 191 194 192 188 181 172 168 163 159 161 159 157 155 156 159 163 162 158 161 168 171 171 168 164 158 160 162 161 162 164 162 161 164 166 175 182 176 185 200 185 193 215 204 187 167 174 129 114 82 254 278 293 288 291 275 273 6 14 351 337 321 313 339 336 353 348 341 347 338 330 333 348 346 347 347
189 177 170 177 198 215 192 179 184 191 196 197 190 190 186 171 164 163 164 165 163 162 166 167 165 161 153 146 149 159 160 163 163 161 158 155 143 132 137 155 165 164 163 171 185 178 182 193 189 190 204 204 206 173 161 148 141 143 202 201 250 288 356 23 344 310 43 32 351 330 317 316 359 355 343 336 335 338 337 330 345 351 350 349 350
175 140 173 197 196 196 196 195 195 197 201 195 184 184 183 182 175 169 165 160 161 162 167 164 157 158 155 147 149 156 165 166 159 155 153 143 132 140 146 148 153 156 178 168 169 180 188 184 189 205 188 202 182 162 151 133 156 143 180 181 221 288 13 47 269 266 264 30 334 313 297 293 12 357 345 331 330 331 332 338 350 353 353 352 353
130 163 196 176 191 185 182 191 201 194 194 170 175 182 182 175 172 155 143 151 158 165 164 160 157 157 156 149 148 155 159 157 153 151 146 143 137 130 129 130 149 167 177 191 211 196 175 179 186 196 198 169 162 179 156 152 139 159 178 199 225 281 283 266 249 271 302 351 322 287 274 281 20 358 340 318 322 319 329 332 352 355 356 355 354
154 165 155 177 165 176 187 191 190 181 185 183 171 169 164 160 156 148 163 165 164 161 161 160 162 165 167 161 157 159 162 161 158 154 148 144 143 140 143 149 152 159 174 186 175 170 177 181 175 191 170 139 161 135 149 150 141 173 175 209 229 251 263 262 267 273 285 310 273 283 308 289 20 7 333 310 305 315 318 338 355 358 0 357 356
172 184 182 184 189 179 174 164 161 178 188 181 175 171 171 172 170 157 148 146 160 164 163 165 168 173 172 166 162 161 163 166 170 165 156 154 149 149 148 155 157 158 163 160 145 145 141 135 143 125 122 102 112 123 140 143 159 170 182 198 189 284 299 321 301 256 288 269 305 299 259 265 340 2 308 306 306 307 304 333 353 3 1 360 358
137 132 145 154 176 181 173 160 160 181 181 181 182 178 173 168 151 138 150 155 162 163 163 166 162 166 174 166 160 162 167 170 172 167 159 151 149 151 156 155 161 165 171 161 158 156 136 125 125 119 124 147 142 155 162 170 167 172 141 82 54 46 36 351 309 314 328 304 280 42 276 283 288 353 313 296 303 298 310 324 354 1 2 360 359
163 173 188 178 163 164 161 166 168 170 167 181 175 169 166 162 148 153 151 153 160 163 167 164 163 166 178 177 167 164 166 171 171 168 161 152 152 157 160 161 159 156 168 175 186 178 168 153 149 153 158 168 182 194 205 200 197 158 122 113 287 103 57 1 318 12 278 311 294 7 252 299 322 343 318 316 301 283 289 323 345 357 358 359 359
174 168 133 112 114 141 161 172 176 171 177 182 175 171 170 170 165 163 165 161 161 160 156 162 166 169 179 182 173 169 171 170 171 168 166 158 160 163 160 157 159 166 177 160 148 162 158 139 130 121 128 155 182 186 200 205 181 134 139 185 209 124 117 142 246 291 291 299 258 322 48 307 332 338 336 301 285 274 82 329 12 347 349 348 351
114 111 126 135 133 149 168 166 162 169 172 186 184 179 175 171 164 167 165 164 162 167 161 164 172 174 175 184 182 173 167 166 171 172 170 166 165 168 164 157 168 187 187 167 167 158 138 133 94 99 76 73 71 91 135 153 161 136 144 160 147 134 161 185 208 325 339 309 246 22 29 318 12 346 349 337 311 277 196 353 11 340 333 337 340